KLM964 GMMN-EHAM

Flight info

Callsign KLM964
Flight time N/A
Altitude 36000
Route TOLSI UG5 KORIS DCT SVL DCT HIJ DCT RUSEM DCT SOTUK DCT USOKO DCT TLD DCT SIE DCT EDIGO DCT DGO L176 LUSEM DCT LULUT DCT ADABI DCT BOKNO UN858 VANAD UN874 ARSAF DCT EGOZE DCT CMB DCT VEKIN DCT ADUTO N873 FERDI/N0397F240 Y18 DENUT
Aircraft A321/M-SDE3FGHIRWY/LB1

Departure

Time N/A
Airport Mohammed V International Airport (GMMN)

Arrival

Time 2026-05-06 17:02
Airport Amsterdam Airport Schiphol (EHAM)
Time Latitude Longitude Altitude Speed Heading
2026-05-06 16:12 47.71622 0.84722 35958 ft 452 kts 18°
2026-05-06 16:12 47.77631 0.87699 35952 ft 452 kts 17°
2026-05-06 16:13 47.83560 0.90643 35953 ft 453 kts 18°
2026-05-06 16:13 47.89541 0.93642 35955 ft 453 kts 18°
2026-05-06 16:14 47.95509 0.96660 35965 ft 453 kts 18°
2026-05-06 16:14 48.01475 0.99691 35957 ft 453 kts 18°
2026-05-06 16:15 48.07435 1.02728 35954 ft 452 kts 18°
2026-05-06 16:15 48.13401 1.05759 35955 ft 453 kts 18°
2026-05-06 16:16 48.19365 1.08804 35950 ft 453 kts 18°
2026-05-06 16:16 48.24323 1.11345 35956 ft 453 kts 18°
2026-05-06 16:17 48.30296 1.14389 35954 ft 453 kts 18°
2026-05-06 16:17 48.36273 1.17447 35953 ft 453 kts 18°
2026-05-06 16:18 48.42242 1.20496 35946 ft 453 kts 19°
2026-05-06 16:18 48.48206 1.23560 35947 ft 453 kts 19°
2026-05-06 16:19 48.54168 1.26632 35944 ft 453 kts 19°
2026-05-06 16:19 48.60097 1.29648 35939 ft 453 kts 18°
2026-05-06 16:20 48.66077 1.32645 35944 ft 453 kts 18°
2026-05-06 16:20 48.72062 1.35653 35943 ft 453 kts 18°
2026-05-06 16:21 48.78037 1.38673 35947 ft 453 kts 18°
2026-05-06 16:21 48.84011 1.41706 35950 ft 453 kts 18°
2026-05-06 16:22 48.89991 1.44745 35942 ft 453 kts 19°
2026-05-06 16:22 48.95799 1.48231 35946 ft 452 kts 30°
2026-05-06 16:23 49.00731 1.54101 35937 ft 451 kts 48°
2026-05-06 16:23 49.04916 1.61240 35941 ft 451 kts 49°
2026-05-06 16:24 49.09097 1.68403 35959 ft 452 kts 48°
2026-05-06 16:24 49.13284 1.75588 35952 ft 454 kts 48°
2026-05-06 16:25 49.17473 1.82810 35939 ft 454 kts 48°
2026-05-06 16:25 49.21649 1.90053 35937 ft 454 kts 48°
2026-05-06 16:26 49.25831 1.97308 35935 ft 455 kts 48°
2026-05-06 16:26 49.29988 2.04519 35931 ft 455 kts 48°
2026-05-06 16:27 49.34180 2.11822 35939 ft 455 kts 48°
2026-05-06 16:27 49.38370 2.19136 35942 ft 456 kts 49°
2026-05-06 16:28 49.42549 2.26473 35938 ft 456 kts 49°
2026-05-06 16:28 49.46718 2.33823 35935 ft 456 kts 49°
2026-05-06 16:29 49.50889 2.41191 35931 ft 457 kts 49°
2026-05-06 16:29 49.55198 2.48373 35929 ft 457 kts 40°
2026-05-06 16:30 49.59510 2.53017 35919 ft 456 kts 31°
2026-05-06 16:30 49.65802 2.59093 35918 ft 457 kts 32°
2026-05-06 16:31 49.71141 2.64293 35916 ft 457 kts 32°
2026-05-06 16:31 49.76521 2.69527 35917 ft 457 kts 32°
2026-05-06 16:32 49.81906 2.74779 35919 ft 457 kts 32°
2026-05-06 16:32 49.87286 2.80045 35915 ft 457 kts 32°
2026-05-06 16:33 49.92665 2.85316 35919 ft 457 kts 32°
2026-05-06 16:34 50.00730 2.93250 35917 ft 458 kts 32°
2026-05-06 16:34 50.06118 2.98566 35922 ft 458 kts 32°
2026-05-06 16:35 50.11500 3.03886 35925 ft 458 kts 32°
2026-05-06 16:35 50.16877 3.09226 35926 ft 458 kts 32°
2026-05-06 16:36 50.22217 3.14527 35927 ft 458 kts 29°
2026-05-06 16:36 50.27971 3.18778 35930 ft 457 kts 23°
2026-05-06 16:37 50.33781 3.22824 35929 ft 457 kts 23°
2026-05-06 16:37 50.39587 3.26903 35931 ft 457 kts 24°
2026-05-06 16:38 50.45345 3.31170 35931 ft 458 kts 26°
2026-05-06 16:38 50.51024 3.35701 35930 ft 458 kts 26°
2026-05-06 16:39 50.56740 3.39990 35933 ft 458 kts 23°
2026-05-06 16:39 50.62605 3.43891 35928 ft 457 kts 18°
2026-05-06 16:40 50.68775 3.46256 35635 ft 456 kts 12°
2026-05-06 16:40 50.71874 3.47351 35167 ft 455 kts 12°
2026-05-06 16:40 50.74963 3.48437 34682 ft 454 kts 11°
2026-05-06 16:40 50.78044 3.49519 34205 ft 454 kts 12°
2026-05-06 16:41 50.81128 3.50600 33698 ft 453 kts 12°
2026-05-06 16:41 50.84205 3.51680 33145 ft 453 kts 12°
2026-05-06 16:41 50.87283 3.52768 32599 ft 453 kts 12°
2026-05-06 16:41 50.90354 3.53859 32068 ft 453 kts 12°
2026-05-06 16:42 50.93433 3.54959 31545 ft 453 kts 12°
2026-05-06 16:42 50.96511 3.56060 30785 ft 454 kts 12°
2026-05-06 16:42 50.99586 3.57155 30183 ft 452 kts 12°
2026-05-06 16:42 51.02666 3.58249 29961 ft 455 kts 12°
2026-05-06 16:43 51.05758 3.59349 29831 ft 455 kts 12°
2026-05-06 16:43 51.08855 3.60451 28645 ft 460 kts 11°
2026-05-06 16:43 51.12026 3.61584 27195 ft 470 kts 11°
2026-05-06 16:43 51.15216 3.62729 26166 ft 469 kts 11°
2026-05-06 16:44 51.18389 3.63875 25318 ft 465 kts 11°
2026-05-06 16:44 51.21536 3.65010 24545 ft 460 kts 10°
2026-05-06 16:44 51.24684 3.65676 23772 ft 454 kts
2026-05-06 16:44 51.27779 3.65636 23062 ft 447 kts 356°
2026-05-06 16:45 51.30857 3.65521 22499 ft 437 kts 357°
2026-05-06 16:45 51.33865 3.65431 22019 ft 426 kts 357°
2026-05-06 16:45 51.36789 3.65357 21886 ft 418 kts 357°
2026-05-06 16:45 51.39697 3.65282 21922 ft 418 kts 357°
2026-05-06 16:46 51.42610 3.65202 21920 ft 418 kts 357°
2026-05-06 16:46 51.45516 3.65117 21881 ft 419 kts 356°
2026-05-06 16:46 51.48426 3.65025 21519 ft 417 kts 357°
2026-05-06 16:46 51.51312 3.64933 21000 ft 413 kts 357°
2026-05-06 16:47 51.54174 3.64841 20454 ft 410 kts 356°
2026-05-06 16:47 51.57012 3.64749 19935 ft 406 kts 357°
2026-05-06 16:47 51.59827 3.64657 19406 ft 403 kts 356°
2026-05-06 16:47 51.62617 3.64570 18897 ft 399 kts 357°
2026-05-06 16:48 51.65388 3.64486 18394 ft 396 kts 357°
2026-05-06 16:48 51.68128 3.64731 17851 ft 395 kts
2026-05-06 16:48 51.70751 3.66049 17287 ft 395 kts 23°
2026-05-06 16:48 51.73072 3.68401 16725 ft 395 kts 38°
2026-05-06 16:49 51.74946 3.71624 16178 ft 395 kts 53°
2026-05-06 16:49 51.76441 3.75339 15647 ft 393 kts 56°
2026-05-06 16:49 51.77885 3.79006 15121 ft 390 kts 56°
2026-05-06 16:49 51.79333 3.82685 14616 ft 387 kts 56°
2026-05-06 16:50 51.80769 3.86336 14093 ft 384 kts 56°
2026-05-06 16:50 51.82194 3.89963 13576 ft 380 kts 56°
2026-05-06 16:50 51.83605 3.93559 13007 ft 376 kts 56°
2026-05-06 16:50 51.84547 3.95965 12629 ft 372 kts 56°
2026-05-06 16:51 51.86359 4.00605 11912 ft 364 kts 56°
2026-05-06 16:51 51.87697 4.04042 11385 ft 359 kts 56°
2026-05-06 16:51 51.89017 4.07437 10855 ft 354 kts 56°
2026-05-06 16:51 51.90317 4.10780 10344 ft 349 kts 56°
2026-05-06 16:52 51.91746 4.13894 9879 ft 340 kts 44°
2026-05-06 16:52 51.93459 4.16392 9734 ft 323 kts 40°
2026-05-06 16:52 51.95099 4.18764 9422 ft 312 kts 40°
2026-05-06 16:52 51.96702 4.21099 8972 ft 308 kts 41°
2026-05-06 16:53 51.98332 4.23401 8520 ft 307 kts 39°
2026-05-06 16:53 51.99925 4.25505 8077 ft 284 kts 38°
2026-05-06 16:53 52.01440 4.27439 7648 ft 272 kts 37°
2026-05-06 16:53 52.02920 4.29312 7217 ft 268 kts 38°
2026-05-06 16:54 52.04377 4.31163 6793 ft 264 kts 38°
2026-05-06 16:54 52.05774 4.32946 6383 ft 250 kts 38°
2026-05-06 16:54 52.07086 4.34631 5965 ft 231 kts 39°
2026-05-06 16:54 52.08307 4.36205 5513 ft 217 kts 39°
2026-05-06 16:55 52.09457 4.37694 5097 ft 205 kts 39°
2026-05-06 16:55 52.10545 4.39105 4719 ft 197 kts 39°
2026-05-06 16:55 52.11620 4.40502 4329 ft 198 kts 39°
2026-05-06 16:55 52.12699 4.41907 3933 ft 199 kts 40°
2026-05-06 16:56 52.13783 4.43319 3550 ft 200 kts 40°
2026-05-06 16:56 52.14855 4.44719 3164 ft 200 kts 39°
2026-05-06 16:56 52.15911 4.46097 2784 ft 194 kts 39°
2026-05-06 16:56 52.16947 4.47454 2464 ft 187 kts 39°
2026-05-06 16:57 52.17922 4.48727 2277 ft 174 kts 39°
2026-05-06 16:57 52.18837 4.49922 2109 ft 164 kts 39°
2026-05-06 16:57 52.19695 4.51040 2031 ft 152 kts 39°
2026-05-06 16:57 52.20467 4.52205 2011 ft 159 kts 51°
2026-05-06 16:58 52.21130 4.53706 2015 ft 165 kts 54°
2026-05-06 16:58 52.21770 4.55278 2011 ft 167 kts 56°
2026-05-06 16:58 52.22401 4.56879 2009 ft 168 kts 57°
2026-05-06 16:58 52.23027 4.58483 2008 ft 168 kts 57°
2026-05-06 16:59 52.23651 4.60093 1941 ft 166 kts 56°
2026-05-06 16:59 52.24237 4.61608 1756 ft 147 kts 56°
2026-05-06 16:59 52.24761 4.62965 1568 ft 137 kts 56°
2026-05-06 16:59 52.25262 4.64261 1394 ft 133 kts 56°
2026-05-06 17:00 52.25752 4.65530 1214 ft 132 kts 56°
2026-05-06 17:00 52.26240 4.66793 1034 ft 131 kts 54°
2026-05-06 17:00 52.26730 4.68062 844 ft 132 kts 57°
2026-05-06 17:00 52.27214 4.69317 667 ft 132 kts 57°
2026-05-06 17:01 52.27706 4.70594 479 ft 132 kts 55°
2026-05-06 17:01 52.28196 4.71866 305 ft 132 kts 56°
2026-05-06 17:01 52.28686 4.73134 115 ft 131 kts 55°
2026-05-06 17:01 52.29159 4.74386 6 ft 123 kts 54°
2026-05-06 17:02 52.29545 4.75364 -2 ft 74 kts 57°
2026-05-06 17:02 52.29729 4.75848 -2 ft 35 kts 58°
2026-05-06 17:02 52.29856 4.76173 -3 ft 33 kts 57°
2026-05-06 17:02 52.29960 4.76437 -3 ft 18 kts 55°
2026-05-06 17:03 52.30052 4.76555 -2 ft 16 kts 31°
2026-05-06 17:03 52.30152 4.76642 -1 ft 16 kts 27°
2026-05-06 17:03 52.30252 4.76728 -1 ft 17 kts 27°
2026-05-06 17:03 52.30329 4.76866 -1 ft 17 kts 55°
2026-05-06 17:04 52.30393 4.77030 -1 ft 17 kts 58°
2026-05-06 17:04 52.30460 4.77200 -1 ft 18 kts 57°
2026-05-06 17:04 52.30482 4.77259 -1 ft 18 kts 58°
2026-05-06 17:05 52.30568 4.77483 -1 ft 19 kts 57°
2026-05-06 17:05 52.30673 4.77589 -1 ft 19 kts
2026-05-06 17:05 52.30803 4.77603 -1 ft 19 kts
2026-05-06 17:05 52.30877 4.77609 -1 ft 19 kts
2026-05-06 17:06 52.30895 4.77611 -1 ft 19 kts
2026-05-06 17:06 52.31009 4.77600 -1 ft 13 kts 322°
2026-05-06 17:06 52.31056 4.77467 -1 ft 14 kts 295°
2026-05-06 17:06 52.31071 4.77369 -1 ft 13 kts 272°
2026-05-06 17:07 52.31075 4.77231 -1 ft 12 kts 272°
2026-05-06 17:07 52.31081 4.77058 -1 ft 18 kts 273°
2026-05-06 17:07 52.31083 4.76904 -1 ft 10 kts 258°
2026-05-06 17:07 52.31041 4.76825 -1 ft 9 kts 217°
2026-05-06 17:08 52.31004 4.76757 -1 ft 8 kts 251°
2026-05-06 17:08 52.30982 4.76681 -1 ft 7 kts 230°
2026-05-06 17:08 52.30953 4.76641 -1 ft 3 kts 214°
2026-05-06 17:08 52.30937 4.76635 -1 ft 2 kts 195°
2026-05-06 17:09 52.30921 4.76631 -1 ft 2 kts 185°
2026-05-06 17:09 52.30915 4.76631 -1 ft 0 kts 184°